Tracking 28565 objects as of 3-Mar-2024
HD Live streaming from Space Station
objects crossing your sky now

STARLINK-5909

Track STARLINK-5909 now!
10-day predictions
STARLINK-5909 is classified as:


NORAD ID: 55938
Int'l Code: 2023-037AA
Perigee: 577.2 km
Apogee: 581.2 km
Inclination: 70.0 °
Period: 96.1 minutes
Semi major axis: 6950 km
RCS: Unknown
Launch date: March 17, 2023
Source: United States (US)
Launch site: AIR FORCE WESTERN TEST RANGE (AFWTR)
Your satellite tracking list
Your tracking list is empty




NASA's NSSDC Master Catalog

Two Line Element Set (TLE):
1 55938U 23037AA  24063.21994897 -.00002120  00000-0 -16992-3 0  9996
2 55938  70.0000 341.3799 0002835 263.5442  96.5394 14.98326628 54003
Source of the keplerian elements: AFSPC